Location: Unspecified
(55.7024°N, 37.6611°E)
Time: 18:48:55
(UTC+03:00)

Tiros 1 - All Passes

Search period start: 23 June 2025 00:00
Search period end: 03 July 2025 00:00
Orbit: 620 x 651 km, 48.4° (Epoch: 23 June)

Date Brightness Start Highest point End Pass type
(mag) Time Alt. Az. Time Alt. Az. Time Alt. Az.
23 Jun - 04:31:33 10° SSE 04:33:18 12° SE 04:35:03 10° ESE daylight
23 Jun - 06:10:16 10° SW 06:14:10 27° SSE 06:18:03 10° ESE daylight
23 Jun - 07:51:13 10° WSW 07:55:23 33° S 07:59:32 10° ESE daylight
23 Jun - 09:32:57 10° WSW 09:36:33 23° SSW 09:40:08 10° SSE daylight
24 Jun - 04:51:48 10° SSW 04:55:00 18° SSE 04:58:12 10° ESE daylight
24 Jun - 06:31:57 10° SW 06:36:05 32° S 06:40:11 10° ESE daylight
24 Jun - 08:13:16 10° WSW 08:17:20 30° SSW 08:21:21 10° SE daylight
24 Jun - 09:55:32 10° WSW 09:58:19 16° SSW 10:01:06 10° S daylight
25 Jun - 03:35:16 10° SSE 03:36:01 10° SE 03:36:47 10° SE daylight
25 Jun - 05:12:59 10° SW 05:16:48 25° SSE 05:20:36 10° ESE daylight
25 Jun - 06:53:49 10° WSW 06:58:02 34° S 07:02:11 10° ESE daylight
25 Jun - 08:35:27 10° WSW 08:39:13 24° SSW 08:42:56 10° SSE daylight
26 Jun - 03:54:43 10° S 03:57:41 17° SSE 04:00:37 10° ESE daylight
26 Jun - 05:34:35 10° SW 05:38:42 31° S 05:42:47 10° ESE daylight
26 Jun - 07:15:50 10° WSW 07:19:57 32° S 07:24:03 10° SE daylight
26 Jun - 08:57:54 10° WSW 09:01:00 18° SSW 09:04:05 10° SSE daylight
27 Jun - 04:15:44 10° SSW 04:19:27 23° SSE 04:23:09 10° ESE daylight
27 Jun - 05:56:25 10° WSW 06:00:38 34° S 06:04:49 10° ESE daylight
27 Jun - 07:37:58 10° WSW 07:41:51 26° SSW 07:45:42 10° SE daylight
27 Jun - 09:21:12 10° SW 09:22:41 11° SW 09:24:10 10° SSW daylight
28 Jun - 02:57:43 10° S 03:00:21 15° SSE 03:02:59 10° ESE daylight
28 Jun - 04:37:15 10° SW 04:41:19 30° SSE 04:45:21 10° ESE daylight
28 Jun - 06:18:24 10° WSW 06:22:34 33° S 06:26:42 10° ESE daylight
28 Jun - 08:00:19 10° WSW 08:03:40 20° SSW 08:06:59 10° SSE daylight
29 Jun - 03:18:31 10° SSW 03:22:06 22° SSE 03:25:39 10° ESE daylight
29 Jun - 04:59:02 10° WSW 05:03:15 33° S 05:07:25 10° ESE daylight
29 Jun - 06:40:30 10° WSW 06:44:29 28° SSW 06:48:26 10° SE daylight
29 Jun - 08:23:13 10° WSW 08:25:22 13° SW 08:27:32 10° S daylight
30 Jun - 02:00:48 10° S 02:03:02 13° SE 02:05:14 10° ESE visible
30 Jun - 03:39:56 10° SW 03:43:56 28° SSE 03:47:55 10° ESE daylight
30 Jun - 05:20:58 10° WSW 05:25:11 33° S 05:29:22 10° ESE daylight
30 Jun - 07:02:46 10° WSW 07:06:19 22° SSW 07:09:51 10° SSE daylight
01 Jul - 02:21:21 10° SSW 02:24:44 20° SSE 02:28:07 10° ESE visible
01 Jul - 04:01:39 10° SW 04:05:51 33° S 04:10:01 10° ESE daylight
01 Jul - 05:43:01 10° WSW 05:47:06 30° SSW 05:51:08 10° SE daylight
01 Jul - 07:25:26 10° WSW 07:28:03 15° SSW 07:30:41 10° S daylight
02 Jul - 01:04:06 10° SSE 01:05:42 12° SE 01:07:18 10° ESE visible
02 Jul - 02:42:37 10° SW 02:46:33 26° SSE 02:50:28 10° ESE visible
02 Jul - 04:23:32 10° WSW 04:27:47 34° S 04:31:59 10° ESE daylight
02 Jul - 06:05:14 10° WSW 06:08:57 24° SSW 06:12:39 10° SSE daylight
